Location: Caixon
(43.4106°N, 0.0273°E)
Time: 22:45:07
(UTC+00:00)

In-Cosmos 22 - Pass Details

Date: 16 October 2021
Orbit: 785 x 876 km, 81.2° (Epoch: 07 December)

Event Time Altitude Azimuth Distance (km) Brightness Sun altitude
Rises 04:56:14 0° 182° (S) 3,288 7.2 -15.1°
Reaches altitude 10° 04:58:37 10° 180° (S) 2,354 6.5 -14.6°
Maximum altitude 05:03:53 71° 97° (E) 833 4.4 -13.7°
Drops below altitude 10° 05:09:09 10° 14° (NNE) 2,355 6.7 -12.7°
Sets 05:11:32 0° 13° (NNE) 3,290 7.4 -12.3°
